Location: Zapote
(9.9191°N, 84.0597°W)
Time: 04:50:29
(UTC-06:00)

Envisat - Pass Details

Date: 27 January 2021
Orbit: 764 x 766 km, 98.1° (Epoch: 09 March)

Event Time Altitude Azimuth Distance (km) Brightness Sun altitude
Rises 04:11:07 0° 36° (NE) 3,219 6.5 -26.2°
Reaches altitude 10° 04:13:57 10° 52° (NE) 2,293 5.9 -25.5°
Maximum altitude 04:17:41 21° 100° (E) 1,670 5.5 -24.7°
Drops below altitude 10° 04:21:25 10° 148° (SSE) 2,294 6.1 -23.8°
Sets 04:24:14 0° 164° (SSE) 3,219 6.7 -23.1°
